Wetbulb
53.83 54.34 54.34 53.71 53.44 53.94 53.04 53.77 51.46 52.83 53.50 56.18 58.32 59.37 59.90 60.85 61.98 64.39 67.09 68.86 70.75 71.30 72.87 75.66 76.13 76.69 77.20 76.02 77.13 76.41 77.43 75.31 77.03 78.10 78.58 78.93 79.53 80.04 79.83 79.43 78.42 78.77 78.79 78.24
52.65 54.43 54.32 52.93 53.94 53.93 53.71 53.66 53.72 54.10 54.20 58.52 59.92 60.80 60.48 61.57 62.25 64.60 66.31 69.39 70.61 71.75 72.83 73.15 74.59 76.80 76.69 77.31 77.28 77.69 77.73 76.56 77.80 79.58 79.56 79.43 79.84 79.59 79.57 78.87 78.67 78.87 78.11 78.28
49.71 53.50 53.35 50.27 53.09 53.75 54.47 55.48 54.77 52.36 55.94 58.89 58.39 59.44 60.35 62.11 64.01 64.85 67.74 69.60 71.03 71.85 72.45 73.90 74.08 75.34 75.32 77.19 78.34 78.29 78.76 78.67 79.24 79.62 78.67 79.29 78.60 79.09 78.69 78.13 79.94 78.21 77.80 78.02
49.92 51.75 44.05 53.50 57.26 56.37 54.89 55.93 56.45 56.95 57.70 58.92 59.63 60.97 63.14 66.30 66.90 67.31 67.28 69.40 71.96 72.60 73.46 74.76 75.21 75.30 75.91 76.24 78.23 78.35 78.38 78.12 77.86 78.98 77.66 78.14 77.75 77.71 77.80 77.41 78.17 77.10 76.79 76.56
47.86 48.01 51.21 52.80 54.69 54.19 53.49 53.69 57.29 57.45 58.42 59.97 61.88 62.10 62.71 67.36 67.58 68.15 68.67 70.92 72.81 73.64 74.39 75.26 75.04 75.96 76.46 75.51 76.16 76.03 75.83 77.33 77.52 77.97 77.08 77.41 77.06 77.58 77.19 76.04 75.96 74.70 74.48 73.15
48.71 44.89 43.44 51.82 55.13 57.42 56.97 49.74 56.78 57.57 59.21 60.26 62.16 57.92 61.97 67.12 68.22 68.71 69.13 72.13 72.57 73.85 74.52 74.59 74.90 75.30 75.17 75.04 75.22 74.91 76.21 76.35 77.72 78.07 76.92 76.77 73.66 70.01 71.50 73.66 72.42 72.32 69.69 69.03
47.59 46.28 49.12 54.33 56.03 57.11 48.34 50.45 60.63 61.17 61.91 61.90 61.01 63.25 65.56 67.34 68.40 69.76 69.65 71.12 73.31 74.30 74.08 74.78 75.34 75.09 74.81 75.44 72.25 70.12 71.73 69.98 68.25 74.44 70.71 71.28 69.18 70.23 70.64 70.85 70.11 68.48 67.51 68.01
47.78 45.37 43.85 56.02 54.90 51.98 55.55 59.48 60.45 60.56 61.00 61.20 62.90 63.85 65.15 66.24 67.51 69.02 68.98 70.38 71.85 72.80 74.11 74.67 75.04 75.14 74.09 71.78 68.19 69.25 68.87 67.34 65.95 67.50 67.98 67.56 66.92 67.50 67.74 68.23 67.70 66.79 66.96 65.89
48.99 48.48 56.16 58.66 58.07 59.08 59.29 58.05 59.24 60.31 61.35 61.45 61.29 62.10 63.91 65.26 66.75 68.93 69.01 70.22 70.85 71.28 72.73 72.23 72.83 72.50 71.20 70.13 69.26 68.76 67.02 65.26 65.65 65.37 66.62 66.54 65.77 66.60 65.13 66.51 65.38 65.28 64.31 64.30
50.93 54.02 55.05 55.17 58.19 59.44 59.06 59.31 60.79 60.40 60.11 61.00 60.76 61.94 62.63 64.58 66.18 67.62 69.49 69.78 71.11 71.75 70.94 71.55 73.21 72.57 72.01 69.41 68.67 67.19 66.91 66.15 65.07 65.06 64.61 63.28 64.48 65.04 65.37 65.09 65.52 63.45 63.36 63.64
51.37 54.19 56.10 56.01 57.81 58.46 57.77 59.21 58.72 59.40 59.37 60.16 60.56 61.56 62.68 63.91 65.72 67.42 69.73 69.95 71.38 71.29 70.85 72.01 72.48 72.07 71.07 70.24 69.54 67.79 66.56 64.81 63.78 61.82 60.11 59.52 59.28 57.23 61.24 56.80 54.08 62.60 62.36 63.09
47.99 53.72 54.96 55.01 57.56 57.82 57.19 57.05 58.45 58.53 58.63 60.36 60.88 61.39 63.19 62.92 65.36 67.29 69.36 70.68 71.22 71.22 71.03 71.06 71.17 70.26 70.34 70.02 69.90 67.72 65.37 64.33 62.85 62.48 62.03 61.56 59.40 58.15 50.80 51.97 50.76 48.45 46.34 52.21
52.62 55.51 55.38 56.21 56.41 57.62 57.05 57.34 57.97 58.31 59.15 59.49 60.66 61.92 62.95 63.18 64.76 64.63 69.14 70.71 71.03 70.73 70.99 69.81 70.68 69.41 70.08 70.14 70.06 67.18 65.60 64.78 62.97 61.97 61.96 60.40 60.10 58.16 55.70 53.62 49.61 48.83 48.11 46.28
56.55 55.94 54.07 55.48 54.68 56.92 57.50 57.73 57.63 58.61 59.19 60.54 60.53 61.08 62.65 63.10 64.28 66.48 68.27 69.99 71.10 71.42 69.92 68.82 70.54 68.75 69.43 69.48 68.57 67.44 66.46 57.25 63.47 62.41 62.11 61.36 61.54 61.11 60.43 59.02 58.99 59.07 50.69 50.83
55.85 56.51 55.75 57.14 57.61 57.67 58.87 59.11 57.85 57.64 58.38 59.29 60.56 61.25 62.51 62.72 63.61 66.19 69.24 70.34 70.77 71.47 70.01 68.14 68.56 68.98 69.07 68.78 68.05 66.66 64.67 63.50 64.03 63.68 63.36 61.75 62.52 62.67 61.95 62.41 62.50 61.99 60.95 52.53
55.93 56.30 56.74 55.82 56.62 58.21 58.31 58.18 57.88 57.67 58.33 59.38 60.24 61.58 62.51 63.49 64.28 67.24 68.83 70.52 69.77 68.42 69.29 68.50 67.13 69.34 68.97 68.35 67.55 66.58 65.67 61.58 62.57 64.02 63.48 63.31 62.81 61.84 61.42 61.21 61.49 61.94 61.83 62.16
55.03 54.66 56.16 56.01 56.27 56.80 58.07 59.12 59.25 58.93 59.04 59.77 61.04 62.64 63.38 63.35 64.82 66.97 67.65 69.47 66.90 66.95 68.57 69.00 68.52 68.51 68.89 68.08 67.79 67.22 65.74 63.71 62.69 64.19 63.49 63.49 63.03 62.00 61.61 61.16 60.50 60.74 60.99 57.86
57.24 57.93 57.42 58.17 58.24 58.30 58.33 59.35 59.75 59.30 59.98 61.05 62.02 62.50 63.03 63.09 64.17 66.53 67.20 68.62 68.33 66.86 69.35 68.21 69.87 67.85 67.94 68.19 68.00 67.39 66.06 64.06 63.73 64.30 64.16 64.03 63.91 63.64 62.48 61.53 60.87 60.65 60.84 57.66
57.05 57.75 58.38 58.85 59.77 59.50 59.14 59.84 61.03 61.53 61.42 61.38 62.31 62.22 63.60 64.24 66.46 66.68 66.66 65.95 67.17 66.30 68.23 70.27 64.16 66.64 67.20 66.94 66.23 67.50 66.29 64.51 63.42 64.37 64.34 61.61 63.90 64.79 64.30 63.15 61.53 60.14 59.96 60.51
58.37 59.81 59.87 60.18 60.69 60.49 60.21 61.18 62.28 62.61 63.13 63.26 62.41 63.26 63.58 64.38 66.64 66.55 66.45 65.96 67.78 67.87 69.57 68.94 66.90 68.23 68.02 67.06 63.27 67.73 67.15 64.96 63.66 64.08 64.37 64.26 64.47 64.31 64.51 58.61 61.91 60.83 60.05 59.34
58.92 59.42 59.74 60.69 60.48 61.81 61.75 62.72 63.04 62.95 63.75 64.15 63.45 63.43 63.64 64.80 67.00 67.04 63.65 64.65 66.97 68.50 69.42 64.99 67.43 66.92 67.62 67.52 65.30 67.54 66.70 65.64 64.54 64.05 64.13 64.48 64.45 64.83 64.57 64.65 62.51 61.11 60.20 59.53
59.39 59.49 60.16 60.68 61.05 61.61 61.47 62.05 62.19 63.97 63.74 62.99 62.79 64.51 64.98 65.47 66.54 66.98 65.39 65.29 68.47 59.84 67.09 68.87 68.18 65.81 67.95 64.18 67.37 67.01 66.40 65.51 64.96 64.97 64.89 64.62 64.52 64.95 65.27 64.83 63.48 62.04 60.87 61.16
59.32 59.74 61.15 61.20 61.04 61.47 62.52 63.50 63.83 63.78 63.84 63.84 64.01 64.76 65.43 67.52 65.83 63.34 60.26 60.26 60.76 62.26 67.32 68.14 63.92 60.06 59.10 67.30 66.60 66.64 65.34 64.76 64.14 64.64 64.92 64.26 65.28 65.23 66.31 64.87 64.33 62.55 62.01 62.00
60.68 60.48 61.14 61.62 61.37 61.14 60.98 63.16 64.31 64.43 64.65 64.90 65.21 65.81 65.71 61.38 62.28 66.06 65.65 60.93 57.02 58.99 65.54 66.80 62.20 58.70 59.01 66.56 66.21 66.11 65.96 66.22 65.77 66.65 67.03 58.23 67.14 66.64 66.23 66.04 63.66 63.06 62.97 61.08
59.61 60.85 60.04 60.34 60.90 60.39 61.42 62.96 63.92 64.10 64.40 64.83 65.45 66.30 66.43 66.59 63.46 64.39 64.60 66.56 58.74 62.32 67.59 56.70 57.61 57.20 66.34 66.25 66.44 66.73 67.11 66.69 66.57 67.67 67.23 66.94 67.09 66.11 67.27 64.31 63.93 63.70 63.63 63.83
57.51 60.11 59.53 59.27 60.88 61.22 60.75 58.97 57.48 61.27 64.09 63.35 65.50 66.42 66.83 68.00 68.67 67.92 67.10 62.97 65.63 62.61 65.96 64.90 66.24 66.34 66.85 67.32 66.72 65.91 65.11 65.74 65.46 66.25 65.91 67.48 67.79 67.15 65.57 65.26 65.04 64.32 64.18 64.45
59.64 54.15 58.57 59.83 60.09 59.87 60.55 59.40 57.81 58.67 60.75 62.00 62.29 64.30 65.48 65.45 65.68 66.55 61.94 65.73 65.39 65.87 65.35 65.77 65.75 63.88 65.63 66.95 66.51 66.63 66.37 66.97 62.66 67.33 67.70 67.91 67.39 64.73 66.64 65.36 65.04 65.35 64.98 64.70
MSLP
998.97 998.24 997.80 997.88 997.92 998.07 997.87 997.70 997.36 996.86 996.04 995.73 995.68 995.66 996.02 996.22 996.85 997.59 998.06 998.58 998.94 999.64 1000.53 1001.60 1002.33 1003.18 1003.88 1004.49 1005.20 1005.94 1006.68 1007.67 1008.13 1008.64 1009.18 1009.68 1010.22 1010.71 1011.35 1011.74 1012.06 1012.41 1012.68 1012.87
999.51 999.08 998.71 998.22 998.36 998.22 998.09 998.10 997.99 997.73 997.02 996.90 996.50 996.47 996.57 996.87 997.07 997.34 997.83 998.66 999.16 999.80 1000.46 1001.45 1002.20 1002.96 1003.63 1004.17 1004.88 1005.67 1006.28 1006.95 1007.57 1008.14 1008.68 1009.08 1009.53 1010.15 1010.75 1011.22 1011.59 1011.90 1012.19 1012.33
999.72 999.96 999.14 998.36 998.62 998.44 998.19 998.00 997.95 997.46 997.29 997.09 996.90 996.86 996.82 997.22 997.69 998.39 998.71 998.56 999.22 999.82 1000.24 1001.02 1001.96 1002.80 1003.47 1004.13 1004.68 1005.38 1006.02 1006.68 1007.23 1007.92 1008.56 1009.00 1009.49 1009.93 1010.39 1010.83 1011.17 1011.27 1011.77 1012.03
1000.83 1000.58 998.94 998.68 998.45 998.31 998.15 998.04 998.02 997.83 997.56 997.51 997.31 997.33 998.03 998.46 999.41 999.49 999.05 999.09 999.48 999.93 1000.29 1000.85 1001.56 1002.33 1003.26 1004.05 1004.68 1005.29 1005.96 1006.68 1007.28 1007.71 1008.27 1008.77 1009.32 1009.83 1010.16 1010.51 1010.95 1011.14 1011.64 1011.91
1001.43 1000.53 999.52 998.95 998.80 998.78 998.53 998.36 998.95 998.86 998.54 998.38 998.44 998.64 999.15 999.99 1000.52 1000.13 999.80 999.48 999.76 1000.08 1000.64 1001.16 1001.59 1002.26 1003.12 1003.91 1004.77 1005.50 1006.08 1006.59 1007.14 1007.46 1008.00 1008.61 1009.05 1009.49 1009.99 1010.80 1011.02 1011.81 1011.86 1012.23
1001.77 1000.95 999.51 999.29 999.14 999.67 1000.10 999.16 999.47 999.72 1000.01 999.88 1000.11 999.98 1000.43 1001.11 1000.79 1000.30 1000.03 1000.14 1000.14 1000.25 1000.90 1001.49 1001.90 1002.54 1003.21 1004.00 1004.74 1005.54 1005.96 1006.58 1007.13 1007.46 1008.02 1008.59 1009.25 1009.48 1010.43 1011.09 1011.79 1011.79 1012.25 1012.33
1001.45 1001.01 1000.20 1000.41 1000.14 1000.45 1000.88 1000.74 1001.13 1001.53 1001.68 1002.07 1002.28 1002.29 1002.06 1001.61 1001.13 1000.58 1000.32 1000.43 1000.52 1000.69 1001.21 1001.63 1002.29 1002.73 1003.55 1004.36 1005.72 1006.79 1007.10 1007.37 1007.59 1007.89 1008.85 1009.53 1010.23 1010.40 1010.86 1011.14 1012.05 1011.96 1012.20 1012.22
1001.97 1001.61 1000.63 1000.64 1000.54 1000.66 1001.51 1001.96 1002.34 1002.88 1003.33 1003.50 1003.37 1002.98 1002.49 1002.08 1001.36 1000.78 1000.53 1000.68 1000.96 1001.18 1001.64 1002.64 1002.74 1003.22 1004.33 1005.65 1006.95 1007.43 1007.84 1008.28 1008.90 1009.43 1009.67 1010.13 1010.48 1011.10 1011.76 1011.74 1011.72 1012.01 1012.14 1012.14
1002.21 1002.25 1003.02 1002.47 1002.24 1002.09 1002.68 1002.66 1002.90 1003.33 1003.68 1003.83 1003.65 1003.31 1002.93 1002.38 1001.78 1001.02 1000.90 1000.96 1001.08 1001.32 1002.31 1003.09 1003.69 1004.29 1004.95 1006.22 1007.15 1007.78 1008.39 1009.08 1009.60 1010.12 1010.38 1010.90 1011.28 1011.40 1011.43 1011.17 1011.42 1011.79 1011.34 1011.57
1003.83 1002.16 1002.55 1003.01 1003.51 1002.91 1002.88 1003.20 1003.29 1003.90 1004.11 1004.15 1003.72 1003.43 1003.04 1002.66 1002.23 1001.61 1001.15 1001.28 1001.19 1002.06 1003.02 1003.15 1003.63 1004.48 1005.26 1006.57 1007.41 1008.15 1008.65 1009.30 1009.91 1010.39 1010.97 1011.51 1011.57 1011.50 1011.67 1011.20 1011.95 1012.33 1011.99 1012.10
1004.02 1004.21 1003.19 1002.50 1003.33 1003.09 1003.27 1003.84 1004.07 1004.33 1004.41 1004.18 1003.86 1003.40 1003.25 1002.89 1002.65 1002.08 1001.57 1001.57 1001.56 1002.56 1003.33 1003.21 1003.78 1004.57 1005.62 1006.58 1007.29 1008.04 1008.78 1009.33 1009.98 1010.37 1010.93 1011.53 1012.19 1012.45 1011.63 1012.30 1013.58 1013.26 1013.08 1012.76
1002.72 1003.17 1003.30 1003.19 1003.39 1003.72 1004.11 1004.11 1004.14 1004.13 1004.07 1003.89 1003.72 1003.29 1003.16 1003.00 1002.84 1002.45 1001.94 1001.63 1002.15 1002.64 1003.25 1003.64 1004.09 1004.81 1005.62 1006.39 1006.87 1007.67 1008.36 1009.04 1009.72 1010.23 1010.35 1011.45 1011.70 1012.58 1012.74 1013.76 1014.14 1014.05 1014.36 1014.08
1003.31 1003.45 1003.04 1002.98 1003.11 1003.45 1003.49 1003.82 1003.83 1003.72 1003.54 1003.40 1003.24 1002.86 1002.64 1002.60 1002.31 1002.21 1002.21 1001.83 1001.82 1002.66 1003.33 1004.18 1004.23 1004.87 1005.57 1006.19 1006.70 1007.44 1007.56 1008.47 1009.36 1009.86 1010.41 1011.33 1011.73 1012.58 1013.48 1014.27 1014.31 1014.65 1014.53 1014.31
1003.36 1003.30 1003.13 1003.03 1002.89 1003.14 1003.19 1003.09 1003.09 1003.09 1003.00 1002.74 1002.62 1002.45 1002.09 1002.03 1001.94 1001.90 1001.53 1001.79 1001.73 1002.40 1003.52 1004.48 1004.20 1004.89 1005.57 1006.24 1006.97 1007.43 1007.58 1008.35 1008.71 1009.23 1009.90 1010.54 1011.02 1011.30 1011.85 1012.66 1013.07 1013.62 1014.01 1014.23
1003.07 1002.91 1002.77 1002.64 1002.78 1002.80 1002.69 1002.17 1002.25 1002.11 1002.06 1001.89 1001.77 1001.37 1001.29 1001.39 1001.27 1001.13 1001.37 1001.56 1001.87 1002.41 1003.42 1004.29 1003.93 1004.14 1004.79 1005.84 1006.71 1007.22 1007.63 1007.96 1008.10 1008.53 1009.19 1009.66 1010.14 1010.27 1010.45 1010.66 1011.02 1011.71 1012.57 1013.44
1004.14 1003.49 1002.91 1002.45 1002.46 1002.02 1001.96 1001.77 1001.46 1001.36 1001.20 1000.94 1000.59 1000.46 1000.52 1000.88 1000.99 1000.79 1001.09 1001.50 1001.90 1002.16 1002.86 1003.55 1003.93 1002.62 1004.69 1004.84 1005.93 1006.60 1007.18 1007.45 1007.60 1008.01 1008.57 1009.07 1009.39 1009.56 1009.69 1010.10 1010.45 1010.77 1011.04 1011.21
1004.56 1003.92 1003.56 1003.00 1002.71 1002.20 1001.52 1000.90 1000.69 1000.45 1000.21 1000.13 1000.05 1000.08 1000.06 1000.40 1000.51 1000.70 1001.27 1001.87 1002.80 1002.60 1002.77 1003.13 1003.58 1004.31 1004.89 1006.09 1005.42 1005.96 1006.54 1007.27 1007.35 1007.61 1008.17 1008.49 1008.84 1009.15 1009.39 1009.61 1009.86 1010.05 1010.33 1011.29
1004.57 1003.75 1003.46 1002.94 1002.52 1001.97 1001.30 1000.90 1000.46 1000.16 999.97 999.75 999.64 999.65 999.77 1000.05 1000.05 1000.69 1000.98 1001.58 1002.23 1002.10 1003.00 1003.45 1003.87 1005.00 1005.19 1005.31 1005.09 1005.75 1006.06 1006.68 1007.09 1007.11 1007.54 1007.98 1008.31 1008.60 1008.94 1009.18 1009.25 1009.42 1009.74 1011.03
1004.22 1003.02 1002.32 1002.21 1001.75 1001.44 1001.31 1000.90 1000.42 1000.03 999.78 999.77 999.56 999.27 999.48 999.84 999.76 1000.44 1000.85 1001.53 1001.71 1002.24 1003.10 1003.58 1004.26 1004.64 1004.24 1004.21 1005.08 1005.34 1005.55 1006.13 1006.65 1006.74 1007.06 1007.45 1008.03 1008.09 1008.28 1008.58 1008.72 1008.94 1009.15 1009.46
1003.03 1002.12 1001.71 1001.18 1000.88 1000.64 1000.49 1000.12 999.94 999.76 999.58 999.23 999.14 998.97 999.09 999.33 999.63 1000.46 1000.70 1001.09 1001.16 1001.83 1002.63 1002.96 1003.61 1004.00 1004.23 1004.75 1005.84 1005.02 1004.85 1005.42 1006.05 1006.34 1006.65 1006.99 1007.42 1007.81 1007.88 1008.17 1008.16 1008.38 1008.69 1008.83
1002.20 1001.39 1000.76 1000.30 1000.01 999.79 999.74 999.59 999.41 999.03 998.78 998.65 998.59 998.74 998.77 998.97 999.61 1000.33 1001.01 1001.08 1001.53 1002.16 1002.76 1003.27 1003.31 1003.76 1004.40 1004.43 1005.34 1004.67 1004.30 1004.80 1005.35 1005.84 1006.11 1006.63 1006.86 1007.20 1007.41 1007.52 1007.93 1008.14 1008.06 1008.28
1001.93 1001.14 1000.40 999.88 999.68 999.35 999.38 999.20 999.06 998.54 998.39 998.23 998.32 998.51 998.57 998.99 999.63 1000.27 1000.85 1001.27 1001.81 1002.44 1002.66 1002.86 1002.96 1003.42 1003.41 1004.20 1004.61 1004.51 1004.15 1004.58 1005.23 1005.57 1005.89 1006.33 1006.59 1007.01 1007.08 1007.35 1007.31 1007.62 1007.71 1007.75
1001.59 1000.78 1000.04 999.61 999.37 999.37 999.10 998.67 998.42 998.31 998.18 998.05 997.92 998.11 998.65 999.11 999.78 1000.15 1000.61 1001.11 1001.46 1001.98 1002.38 1002.43 1002.70 1003.38 1004.13 1003.82 1004.24 1004.15 1004.44 1005.04 1005.65 1005.97 1006.01 1006.40 1006.51 1006.91 1006.97 1007.16 1006.86 1006.97 1007.16 1007.36
1001.30 1000.76 1000.22 999.99 999.87 999.59 999.18 998.71 998.46 998.17 998.09 998.28 998.08 998.22 998.66 999.37 1000.10 1000.16 1000.12 1000.58 1000.92 1002.54 1002.73 1001.67 1002.48 1003.43 1004.06 1004.00 1004.22 1004.31 1004.26 1004.66 1005.24 1005.56 1005.84 1006.19 1006.49 1006.46 1006.64 1006.54 1006.68 1006.51 1006.78 1007.20
1001.92 1001.18 1000.94 1000.63 1000.13 999.89 999.61 999.26 998.87 998.39 998.21 998.19 998.08 998.60 998.96 999.49 999.76 1000.40 1000.11 1000.95 1001.92 1002.24 1002.10 1002.88 1003.18 1003.79 1003.75 1003.98 1004.22 1004.47 1004.75 1005.06 1005.36 1005.66 1006.02 1006.30 1006.49 1006.33 1005.99 1006.41 1006.19 1005.97 1006.09 1006.11
1002.65 1002.18 1001.94 1001.65 1001.15 1000.58 1000.45 1000.33 999.96 999.32 998.72 998.34 998.55 999.05 999.50 999.67 999.99 1000.58 1000.82 1001.27 1001.69 1001.62 1002.16 1003.09 1003.39 1003.74 1003.56 1003.77 1004.32 1004.80 1005.12 1005.12 1005.42 1005.54 1005.78 1005.88 1005.74 1005.34 1005.48 1005.47 1005.07 1005.13 1005.46 1005.61
1003.42 1003.07 1002.76 1002.41 1002.14 1001.84 1001.55 1001.42 1000.25 1000.01 1000.01 1000.17 1000.31 1000.49 1000.71 1000.98 1000.84 1000.75 1001.04 1001.20 1001.66 1001.62 1001.91 1002.13 1003.09 1003.56 1003.01 1002.83 1003.46 1004.17 1004.68 1004.97 1005.13 1005.19 1005.32 1005.23 1005.15 1005.50 1004.63 1004.51 1004.57 1004.81 1005.02 1005.24
Wind_Speed
21 21 20 18 13 15 15 15 15 18 20 15 13 7 9 5 1 2 3 10 14 16 16 14 14 15 13 16 14 16 15 16 15 15 14 13 12 11 11 11 12 12 12 12
21 20 19 21 20 21 20 20 21 21 20 17 18 16 11 9 11 7 2 8 12 14 17 18 16 14 15 14 15 15 14 16 15 13 13 13 12 12 12 12 11 11 12 12
19 21 22 24 23 22 23 22 19 22 19 17 15 14 13 6 9 5 6 5 10 12 14 16 17 16 15 14 13 13 13 13 12 12 12 11 11 11 12 12 10 11 9 9
17 19 23 17 18 18 17 20 17 18 19 20 16 6 8 12 9 8 4 4 8 9 11 13 15 17 15 15 12 12 12 12 11 12 12 12 12 12 12 11 11 10 6 5
16 18 23 21 13 13 18 16 13 17 18 10 14 8 9 7 7 7 6 4 7 9 10 10 12 13 13 14 13 13 13 12 13 13 13 11 11 11 9 3 6 5 6 5
15 21 26 16 11 8 14 15 13 17 8 8 9 10 6 10 9 8 3 2 6 9 10 12 12 13 13 13 13 13 11 11 10 10 9 11 6 10 5 4 2 4 5 4
17 19 20 19 19 11 13 6 7 9 8 8 8 9 11 12 9 8 3 4 6 9 9 10 10 11 12 11 10 9 9 12 11 8 11 12 10 9 6 6 4 3 4 2
13 20 26 14 19 19 1 3 3 2 4 6 8 10 9 11 10 8 3 5 8 9 9 6 7 9 10 11 10 10 10 11 12 9 10 9 11 7 5 6 6 4 2 4
16 9 9 11 10 4 7 5 4 3 7 7 9 9 10 10 11 8 4 6 10 10 10 9 9 9 10 12 12 11 11 11 9 9 10 9 9 9 5 6 2 4 1 3
15 15 14 9 14 5 6 6 3 5 10 11 10 10 11 10 10 11 5 5 8 8 8 11 11 11 10 12 12 13 13 13 12 11 9 7 5 2 3 3 1 1 1 1
12 18 22 19 12 11 5 3 7 11 12 13 13 11 10 10 10 11 7 6 7 9 10 11 11 13 14 15 15 14 13 13 12 11 9 5 6 6 7 8 6 4 3 3
14 12 13 9 15 12 11 14 13 15 15 15 15 13 11 10 9 10 8 6 8 10 12 10 13 14 14 15 16 15 14 12 10 9 10 7 8 6 13 9 6 8 3 4
15 18 19 20 15 16 18 18 17 18 18 16 15 14 13 11 9 11 9 11 12 12 10 11 13 14 15 14 13 14 13 13 10 10 10 9 10 8 8 3 1 4 5 6
19 18 19 20 17 18 19 20 19 20 20 16 14 17 14 12 12 11 10 12 8 13 13 12 14 15 14 14 13 13 12 11 12 11 11 11 10 11 10 9 8 7 8 11
12 12 14 12 12 15 18 15 17 18 18 16 17 16 13 13 13 12 10 11 9 12 13 12 13 16 17 16 14 13 11 11 11 11 11 11 10 8 9 9 7 7 7 7
13 13 17 16 17 19 16 20 16 16 17 18 17 15 13 13 13 10 9 11 9 12 14 16 11 16 16 17 15 12 11 11 10 10 10 9 9 8 7 7 7 7 6 3
16 17 17 17 15 15 17 16 16 16 13 12 11 12 11 12 13 10 8 9 11 11 15 16 12 12 12 13 14 10 9 11 10 10 10 9 8 8 7 7 7 6 7 7
20 19 18 19 18 17 15 15 12 12 12 14 14 14 11 14 14 12 10 12 12 13 15 10 11 14 18 16 12 9 10 12 11 10 9 9 8 8 7 7 7 7 5 8
20 22 20 19 19 16 13 14 15 15 12 11 13 16 13 15 12 10 9 9 12 12 13 13 11 15 13 14 12 11 11 12 12 10 10 9 8 8 7 8 7 7 7 8
17 17 18 20 18 15 14 14 16 15 16 16 13 13 13 14 10 12 13 13 10 8 13 13 13 12 10 14 17 12 12 13 13 11 10 10 9 9 8 6 6 7 7 6
16 14 14 14 13 13 12 12 12 14 15 14 13 10 14 14 10 12 6 7 9 7 14 15 12 10 8 11 14 13 11 12 12 12 10 10 9 9 9 8 8 8 7 7
14 12 12 11 10 9 8 11 10 12 11 12 12 14 12 10 10 13 5 6 4 9 7 11 11 15 11 14 12 14 11 11 9 9 9 8 7 8 7 7 8 8 8 7
11 11 11 9 8 8 10 7 7 7 7 7 10 10 8 7 6 6 5 7 3 2 6 8 10 13 10 11 11 13 11 11 12 7 6 6 8 6 9 7 9 8 8 7
10 9 5 3 3 5 6 6 7 7 6 5 7 6 6 7 4 3 3 7 8 14 17 10 15 17 13 9 7 9 9 11 12 10 9 6 7 8 8 8 8 9 9 8
10 9 9 7 8 8 9 12 8 7 8 7 5 6 7 10 8 6 4 12 24 19 9 12 17 16 11 7 7 7 8 8 8 7 9 9 10 11 11 8 10 11 10 9
8 8 7 8 7 6 6 8 7 6 2 4 4 5 5 4 7 10 11 9 13 11 12 11 10 9 9 8 8 9 8 8 9 9 10 10 12 11 8 12 14 10 10 9
9 9 7 6 6 6 7 9 11 9 9 8 9 9 10 9 7 4 2 11 8 2 10 11 11 10 6 8 10 10 9 9 10 9 10 11 8 5 13 7 8 7 7 8
Wind_Direction
273 275 283 286 256 268 279 284 278 287 293 299 306 293 257 5 278 259 214 198 188 188 180 184 183 183 196 190 194 194 182 197 202 202 204 206 205 205 207 216 215 222 225 231
274 274 274 278 269 275 262 258 263 269 271 280 294 305 309 319 309 9 290 198 200 195 183 186 190 186 190 197 190 197 194 201 201 197 202 204 201 196 201 213 216 218 228 234
256 260 254 249 253 259 270 269 263 265 263 264 272 260 255 316 356 335 318 194 191 196 191 187 195 190 194 196 190 193 196 202 199 193 204 202 203 203 208 212 212 218 220 231
269 277 259 265 270 280 272 278 275 283 269 269 277 325 352 30 357 336 294 244 186 195 192 188 190 189 196 193 194 192 197 198 197 198 194 196 198 209 210 216 224 211 191 201
259 255 267 263 263 268 270 261 262 269 278 307 309 331 267 62 338 336 326 275 183 192 182 177 187 178 186 185 187 192 199 201 197 200 192 190 199 192 200 153 157 200 181 193
248 257 260 272 290 0 330 286 271 275 305 306 336 278 59 354 329 330 335 279 201 164 166 173 175 171 173 176 177 188 195 193 195 192 169 182 130 116 113 96 160 197 196 185
252 249 256 271 283 304 255 266 14 360 6 347 298 334 329 323 326 319 343 184 215 160 167 161 165 168 171 148 125 124 103 88 64 96 105 118 103 106 108 148 145 178 204 202
247 258 262 271 258 239 106 59 37 358 329 311 312 310 318 329 319 326 311 169 203 185 146 152 156 148 150 141 139 128 117 109 112 115 117 119 114 116 142 157 152 170 207 262
272 273 23 333 322 63 329 311 274 334 315 311 305 307 324 318 323 330 310 172 206 176 150 170 160 165 159 142 152 141 131 124 121 117 131 131 136 143 149 125 270 231 170 282
330 269 258 181 311 267 270 274 321 316 306 307 301 310 302 315 323 318 314 216 199 145 182 169 164 159 140 149 148 145 142 139 133 127 116 120 126 149 202 143 164 275 88 320
252 280 292 275 239 253 282 249 305 292 280 281 294 294 309 300 304 304 311 223 182 171 185 165 149 140 146 149 153 145 142 138 140 138 131 108 43 0 54 53 29 343 42 41
272 264 266 279 296 297 296 287 281 280 281 276 279 278 284 285 287 294 293 244 165 201 168 187 162 154 154 162 164 154 151 151 153 148 139 129 125 97 47 72 42 47 353 330
278 276 278 279 280 269 276 274 269 269 267 270 263 271 274 284 279 288 288 267 198 192 154 191 173 169 167 171 168 167 158 144 154 154 150 156 146 140 148 154 323 271 263 279
269 263 271 267 263 268 267 265 262 260 258 259 256 258 263 269 266 250 254 262 223 181 177 190 185 178 174 174 176 176 158 157 161 156 160 165 171 167 156 163 169 162 222 237
296 288 279 284 289 278 285 264 266 251 253 252 253 246 247 262 269 265 233 239 219 170 174 194 201 179 170 170 175 167 162 167 171 166 169 170 180 181 191 187 178 161 170 212
313 274 266 277 294 278 245 262 254 250 248 241 240 245 239 253 261 262 249 221 182 183 184 200 189 182 176 164 171 169 175 172 184 172 158 176 178 191 183 185 187 193 205 186
287 277 287 284 274 272 284 254 250 253 250 249 245 245 241 253 256 231 209 183 176 170 186 189 169 147 174 185 175 172 173 172 198 177 169 182 180 193 193 193 202 197 210 100
269 267 268 272 277 279 274 281 277 252 264 263 261 261 246 248 244 226 208 193 170 163 191 180 173 169 180 178 178 188 180 172 192 190 175 185 189 197 198 209 218 209 196 144
276 265 261 270 268 266 273 267 268 272 277 273 255 245 245 245 236 207 189 187 183 168 182 183 156 182 174 169 183 207 189 178 194 197 189 179 190 210 203 206 216 220 224 166
286 263 256 264 267 257 256 251 253 254 253 249 247 248 237 236 216 202 179 196 192 165 178 172 154 186 182 177 206 217 199 182 197 202 195 189 200 210 216 225 240 211 220 217
290 287 277 271 268 264 253 256 248 247 233 234 244 239 243 231 214 192 189 201 185 170 181 155 163 180 195 187 194 229 201 194 197 202 191 206 197 214 215 211 210 241 216 216
306 307 290 287 285 273 285 273 249 245 233 221 223 227 232 229 209 187 170 167 144 169 181 173 177 197 192 173 202 215 206 193 207 220 197 207 204 218 213 243 212 212 235 225
289 284 294 291 293 307 308 275 235 226 225 235 231 210 219 206 175 174 189 170 116 286 213 185 182 148 129 183 200 219 189 202 204 213 207 191 216 221 234 245 231 223 220 224
336 329 327 337 313 308 304 279 272 244 219 233 240 203 174 127 183 207 275 106 248 245 237 186 151 150 169 201 205 221 214 194 197 207 214 233 236 232 228 229 229 224 219 216
4 27 39 17 21 20 356 12 339 276 228 216 213 156 153 174 182 172 256 154 178 189 150 132 142 152 186 188 199 205 208 216 225 215 216 214 219 222 230 227 234 211 225 236
13 24 24 4 22 20 50 27 358 339 278 174 113 124 117 112 151 161 171 156 176 195 127 146 155 179 199 183 180 202 205 218 215 221 218 220 225 230 232 224 227 214 224 241
40 23 12 14 22 19 22 40 6 39 49 63 61 45 46 43 52 97 190 147 159 144 142 139 153 196 224 172 181 192 206 219 214 226 227 231 220 248 249 237 240 244 257 256